Location: *
(44.3925°N, 5.4708°E)
Time: 14:43:44
(UTC+00:00)

SL-24 R/B - Pass Details

Date: 18 September 2019
Orbit: 625 x 1075 km, 98.0° (Epoch: 20 October)

Event Time Altitude Azimuth Distance (km) Brightness Sun altitude
Exits shadow 19:46:08 58° 99° (E) 795 4.2 -21.9°
Maximum altitude 19:46:33 61° 73° (ENE) 778 4.2 -21.9°
Drops below altitude 10° 19:51:20 10° 353° (N) 2,247 7.3 -22.7°
Sets 19:53:46 0° 351° (N) 3,242 8.3 -23.1°
